Regional Weather Roundup
Issued by NWS Huntsville, AL

Home | Current Version | Previous Version | Text Only | Print | Product List | Glossary On
Versions: 1 2 3 4 5 6 7 8 9 10 11 12 13 14 15 16 17 18 19 20 21 22 23 24 25 26 27 28 29 30 31 32 33 34 35 36 37 38 39 40 41 42 43 44
000
ASUS44 KHUN 262010
RWRHUN

WEATHER ROUNDUP FOR THE TENNESSEE VALLEY
NATIONAL WEATHER SERVICE HUNTSVILLE AL
200 PM CST FRI DEC 26 2014

ALZ001>004-262100-
NORTHWEST ALABAMA

CITY           SKY/WX    TMP DP  RH WIND       PRES   REMARKS
COURTLAND HCN    N/A     50 N/A N/A S5          N/A
RUSSELLVILLE     N/A     52 N/A N/A MISG        N/A
SHOALS AIRPORT CLOUDY    51  39  63 SE6       30.26S
SHOALS TVA RES   N/A     50 N/A N/A MISG        N/A
$$

ALZ005>007-016-262100-
NORTH CENTRAL ALABAMA

CITY           SKY/WX    TMP DP  RH WIND       PRES   REMARKS
CULLMAN AG STN   N/A     54 N/A N/A E7          N/A
DECATUR AP     CLOUDY    52  40  63 SE5       30.26F
HUNTSVILLE AP  CLOUDY    54  39  57 S5        30.25F
HUN NWS/UAH      N/A     51  36  56 S2          N/A
MERIDIANVILLE  PTSUNNY   50  34  53 SE3       30.25F
REDSTONE ARSN  CLOUDY    52  39  62 S5        30.25F
VINEMONT AP    FAIR      52  38  60 S5        30.26S
$$

ALZ008>010-262100-
NORTHEAST ALABAMA

CITY           SKY/WX    TMP DP  RH WIND       PRES   REMARKS
ALBERTVILLE    MOSUNNY   54  43  66 E3        30.24F
FORT PAYNE     PTSUNNY   54  32  43 CALM      30.25S
SCOTTSBORO AP  PTSUNNY   50  39  66 N5        30.27F
VALLEY HEAD      N/A     54 N/A N/A MISG        N/A
$$

TNZ076-096-097-262100-
SOUTHEASTERN MIDDLE TENNESSEE

CITY           SKY/WX    TMP DP  RH WIND       PRES   REMARKS
TULLAHOMA      SUNNY     48  36  61 S5        30.25S
WINCHESTER     SUNNY     50  39  66 SE6       30.26R
$$

...SURROUNDING SITES...

CITY           SKY/WX    TMP DP  RH WIND       PRES   REMARKS
ATLANTA        MOSUNNY   57  32  38 CALM      30.26F
ANNISTON       MOSUNNY   57  35  43 SE5       30.27F
BIRMINGHAM     PTSUNNY   54  37  52 E5        30.28S
CHATTANOOGA    CLOUDY    51  37  58 NE5       30.28F
CORINTH        FAIR      50  39  66 SE9       30.22R
DALTON         MOSUNNY   52  37  58 CALM      30.28F
GADSDEN        MOSUNNY   54  37  54 CALM      30.26F
GOLDEN TRNGL   PTSUNNY   55  45  67 S14       30.21F
HALEYVILLE     FAIR      50  39  65 CALM      30.26F
JACKSON TN     CLOUDY    53  38  56 SE5       30.19F
LEWISBURG      FAIR      48  38  68 S7        30.24F
MEMPHIS        CLOUDY    55  37  50 S10       30.18S
MURFREESBORO   FAIR      52  37  56 S10       30.24F
NASHVILLE      PTSUNNY   54  38  54 SE10      30.22F
OXFORD MS      FAIR      48  37  66 SE6       30.22S
ROME           MOSUNNY   54  36  50 E5        30.26F
SAVANNAH       SUNNY     48  39  71 S7        30.23S
TUPELO         CLOUDY    50  39  66 MISG      30.22F
TUSCALOOSA     MOSUNNY   58  40  51 CALM      30.26F
$$

...GULF COAST WEATHER...

CITY           SKY/WX    TMP DP  RH WIND       PRES   REMARKS
GULFPORT       SUNNY     67  51  56 E14       30.16F
PASCAGOULA     MOSUNNY   66  51  58 E8        30.18F
MOBILE         PTSUNNY   63  50  62 SE7       30.20F
GULF SHORES    MOCLDY    64  53  68 E9        30.22S
PENSACOLA      PTSUNNY   64  51  62 E10       30.22S
DESTIN         SUNNY     62  45  53 NE6       30.23F
PANAMA CITY    SUNNY     65  60  81 VRB3      30.23F
APPALACHICOLA  SUNNY     63  47  55 SE8       30.23S
$$



USA.gov is the U.S. government's official web portal to all federal, state and local government web resources and services.